• în România
  • Lista ţărilor
  • Pe 7 zile
  • Temperatura apei
  • Hartă satelitară
  • Meteo pe hartă
  • Widget-uri
  • user-avatar
    Intrare

    Meteo pe oră la Brecon

    Astăzi, 22 Iulie, Duminică

    Timp Temperatura Precipitaţii Vânt Presiune Umiditate
    00:00 +15°C° 0 mm 2 m/s 746 mmHg 84%
    01:00 +15°C° 0 mm 2 m/s 746 mmHg 84%
    02:00 +15°C° 0 mm 2 m/s 746 mmHg 84%
    03:00 +14°C° 0 mm 2 m/s 746 mmHg 84%
    04:00 +15°C° 0 mm 2 m/s 746 mmHg 83%
    05:00 +15°C° 0 mm 2 m/s 746 mmHg 83%
    06:00 +16°C° 0 mm 2 m/s 747 mmHg 82%
    07:00 +17°C° 0 mm 2 m/s 747 mmHg 79%
    08:00 +19°C° 0 mm 2 m/s 747 mmHg 76%
    09:00 +20°C° 0 mm 2 m/s 747 mmHg 73%
    10:00 +21°C° 0 mm 2 m/s 747 mmHg 71%
    11:00 +23°C° 0 mm 2 m/s 747 mmHg 69%
    12:00 +25°C° 0 mm 2 m/s 747 mmHg 67%
    13:00 +25°C° 0 mm 3 m/s 747 mmHg 67%
    14:00 +25°C° 0 mm 3 m/s 747 mmHg 67%
    15:00 +26°C° 0 mm 3 m/s 747 mmHg 67%
    16:00 +25°C° 0 mm 3 m/s 747 mmHg 71%
    17:00 +23°C° 0 mm 4 m/s 746 mmHg 74%
    18:00 +23°C° 0 mm 4 m/s 746 mmHg 77%
    19:00 +21°C° 0 mm 3 m/s 746 mmHg 83%
    20:00 +20°C° 0 mm 3 m/s 747 mmHg 88%
    21:00 +19°C° 0 mm 3 m/s 747 mmHg 93%
    22:00 +18°C° 0 mm 2 m/s 747 mmHg 94%
    23:00 +18°C° 0 mm 2 m/s 747 mmHg 94%

    Mâine, 23 Iulie, Luni

    Timp Temperatura Precipitaţii Vânt Presiune Umiditate
    00:00 +17°C° 0 mm 2 m/s 747 mmHg 95%
    01:00 +17°C° 0 mm 2 m/s 747 mmHg 95%
    02:00 +17°C° 0 mm 2 m/s 747 mmHg 95%
    03:00 +16°C° 0 mm 1 m/s 747 mmHg 95%
    04:00 +17°C° 0 mm 2 m/s 747 mmHg 94%
    05:00 +17°C° 0 mm 2 m/s 747 mmHg 94%
    06:00 +18°C° 0 mm 2 m/s 747 mmHg 93%
    07:00 +19°C° 0 mm 2 m/s 747 mmHg 89%
    08:00 +20°C° 0 mm 2 m/s 747 mmHg 85%
    09:00 +21°C° 0 mm 3 m/s 747 mmHg 80%
    10:00 +22°C° 0 mm 3 m/s 747 mmHg 79%
    11:00 +22°C° 0 mm 3 m/s 747 mmHg 78%
    12:00 +22°C° 0 mm 3 m/s 747 mmHg 76%
    13:00 +24°C° 0 mm 3 m/s 746 mmHg 75%
    14:00 +23°C° 0 mm 4 m/s 746 mmHg 74%
    15:00 +23°C° 0 mm 4 m/s 746 mmHg 73%
    16:00 +23°C° 0 mm 4 m/s 746 mmHg 75%
    17:00 +22°C° 0 mm 3 m/s 746 mmHg 76%
    18:00 +22°C° 0 mm 3 m/s 746 mmHg 77%
    19:00 +20°C° 0 mm 3 m/s 746 mmHg 82%
    20:00 +19°C° 0 mm 2 m/s 746 mmHg 87%
    21:00 +17°C° 0 mm 2 m/s 746 mmHg 93%
    22:00 +17°C° 0 mm 2 m/s 746 mmHg 93%
    23:00 +16°C° 0 mm 2 m/s 745 mmHg 94%

    Poimâine, 24 Iulie, Marţi

    Timp Temperatura Precipitaţii Vânt Presiune Umiditate
    00:00 +16°C° 0 mm 1 m/s 745 mmHg 95%
    01:00 +15°C° 0 mm 1 m/s 745 mmHg 95%
    02:00 +15°C° 0 mm 1 m/s 745 mmHg 94%
    03:00 +15°C° 0 mm 1 m/s 745 mmHg 94%
    04:00 +15°C° 0 mm 1 m/s 745 mmHg 94%
    05:00 +16°C° 0 mm 1 m/s 745 mmHg 93%
    06:00 +16°C° 0 mm 1 m/s 745 mmHg 92%
    07:00 +19°C° 0 mm 1 m/s 745 mmHg 86%
    08:00 +19°C° 0 mm 2 m/s 745 mmHg 80%
    09:00 +20°C° 0 mm 2 m/s 745 mmHg 74%
    10:00 +21°C° 0 mm 3 m/s 745 mmHg 71%
    11:00 +22°C° 0 mm 3 m/s 745 mmHg 67%
    12:00 +24°C° 0 mm 3 m/s 745 mmHg 64%
    13:00 +23°C° 0,1 mm 4 m/s 745 mmHg 65%
    14:00 +23°C° 0,1 mm 4 m/s 745 mmHg 67%
    15:00 +23°C° 0,1 mm 4 m/s 745 mmHg 68%
    16:00 +22°C° 0 mm 4 m/s 745 mmHg 70%
    17:00 +21°C° 0 mm 4 m/s 745 mmHg 72%
    18:00 +21°C° 0 mm 4 m/s 745 mmHg 75%
    19:00 +19°C° 0 mm 3 m/s 745 mmHg 80%
    20:00 +17°C° 0 mm 3 m/s 746 mmHg 86%
    21:00 +16°C° 0 mm 2 m/s 746 mmHg 91%
    22:00 +15°C° 0 mm 2 m/s 746 mmHg 92%
    23:00 +15°C° 0 mm 2 m/s 746 mmHg 92%

    25 Iulie, Miercuri

    Timp Temperatura Precipitaţii Vânt Presiune Umiditate
    00:00 +14°C° 0 mm 2 m/s 746 mmHg 92%
    01:00 +14°C° 0 mm 2 m/s 746 mmHg 93%
    02:00 +14°C° 0 mm 1 m/s 746 mmHg 93%
    03:00 +13°C° 0 mm 1 m/s 746 mmHg 93%
    04:00 +14°C° 0 mm 1 m/s 746 mmHg 92%
    05:00 +14°C° 0 mm 1 m/s 746 mmHg 90%
    06:00 +15°C° 0 mm 1 m/s 746 mmHg 89%
    07:00 +18°C° 0 mm 1 m/s 746 mmHg 83%
    08:00 +19°C° 0 mm 1 m/s 746 mmHg 77%
    09:00 +21°C° 0 mm 1 m/s 746 mmHg 71%
    10:00 +22°C° 0 mm 1 m/s 746 mmHg 66%
    11:00 +23°C° 0 mm 2 m/s 746 mmHg 62%
    12:00 +25°C° 0 mm 2 m/s 745 mmHg 57%
    13:00 +25°C° 0 mm 2 m/s 745 mmHg 57%
    14:00 +25°C° 0 mm 2 m/s 745 mmHg 57%
    15:00 +25°C° 0 mm 2 m/s 745 mmHg 56%
    16:00 +25°C° 0 mm 2 m/s 745 mmHg 59%
    17:00 +24°C° 0 mm 2 m/s 744 mmHg 61%
    18:00 +24°C° 0 mm 2 m/s 744 mmHg 63%
    19:00 +21°C° 0 mm 2 m/s 744 mmHg 70%
    20:00 +19°C° 0 mm 2 m/s 745 mmHg 77%
    21:00 +17°C° 0 mm 2 m/s 745 mmHg 84%
    22:00 +16°C° 0 mm 2 m/s 745 mmHg 87%
    23:00 +16°C° 0 mm 2 m/s 745 mmHg 90%

    26 Iulie, Joi

    Timp Temperatura Precipitaţii Vânt Presiune Umiditate
    00:00 +14°C° 0 mm 3 m/s 745 mmHg 93%
    01:00 +14°C° 0 mm 3 m/s 745 mmHg 94%
    02:00 +14°C° 0 mm 3 m/s 745 mmHg 94%
    03:00 +14°C° 0 mm 3 m/s 745 mmHg 95%
    04:00 +15°C° 0 mm 2 m/s 745 mmHg 94%
    05:00 +16°C° 0 mm 2 m/s 746 mmHg 93%
    06:00 +16°C° 0 mm 2 m/s 746 mmHg 92%
    07:00 +17°C° 0 mm 2 m/s 746 mmHg 87%
    08:00 +19°C° 0 mm 2 m/s 746 mmHg 82%
    09:00 +20°C° 0 mm 2 m/s 747 mmHg 77%
    10:00 +21°C° 0 mm 2 m/s 747 mmHg 73%
    11:00 +23°C° 0 mm 2 m/s 747 mmHg 69%
    12:00 +22°C° 0 mm 3 m/s 747 mmHg 65%
    13:00 +24°C° 0 mm 3 m/s 747 mmHg 63%
    14:00 +24°C° 0 mm 3 m/s 747 mmHg 62%
    15:00 +24°C° 0 mm 3 m/s 747 mmHg 60%
    16:00 +24°C° 0 mm 2 m/s 747 mmHg 62%
    17:00 +24°C° 0 mm 2 m/s 747 mmHg 64%
    18:00 +23°C° 0 mm 2 m/s 746 mmHg 66%
    19:00 +20°C° 0 mm 2 m/s 746 mmHg 72%
    20:00 +20°C° 0 mm 1 m/s 746 mmHg 79%
    21:00 +18°C° 0 mm 1 m/s 746 mmHg 86%
    22:00 +16°C° 0 mm 1 m/s 746 mmHg 87%
    23:00 +15°C° 0 mm 1 m/s 746 mmHg 88%

    27 Iulie, Vineri

    Timp Temperatura Precipitaţii Vânt Presiune Umiditate
    00:00 +15°C° 0 mm 1 m/s 746 mmHg 90%
    01:00 +15°C° 0 mm 1 m/s 746 mmHg 90%
    02:00 +14°C° 0 mm 1 m/s 746 mmHg 91%
    03:00 +14°C° 0 mm 2 m/s 746 mmHg 92%
    04:00 +15°C° 0 mm 2 m/s 746 mmHg 92%
    05:00 +15°C° 0 mm 2 m/s 746 mmHg 91%
    06:00 +16°C° 0 mm 2 m/s 746 mmHg 91%
    07:00 +18°C° 0 mm 2 m/s 746 mmHg 83%
    08:00 +19°C° 0 mm 3 m/s 746 mmHg 76%
    09:00 +21°C° 0 mm 3 m/s 746 mmHg 69%
    10:00 +22°C° 0,1 mm 3 m/s 746 mmHg 66%
    11:00 +22°C° 0,1 mm 3 m/s 746 mmHg 64%
    12:00 +24°C° 0,1 mm 3 m/s 746 mmHg 62%
    13:00 +24°C° 0,1 mm 3 m/s 746 mmHg 63%
    14:00 +22°C° 0,1 mm 3 m/s 746 mmHg 63%
    15:00 +22°C° 0,1 mm 3 m/s 746 mmHg 64%
    16:00 +22°C° 0 mm 3 m/s 746 mmHg 65%
    17:00 +22°C° 0 mm 3 m/s 746 mmHg 66%
    18:00 +21°C° 0 mm 3 m/s 746 mmHg 67%
    19:00 +19°C° 0 mm 3 m/s 746 mmHg 74%
    20:00 +17°C° 0 mm 3 m/s 747 mmHg 80%
    21:00 +16°C° 0 mm 2 m/s 747 mmHg 87%
    22:00 +15°C° 0 mm 2 m/s 747 mmHg 88%
    23:00 +15°C° 0 mm 2 m/s 747 mmHg 89%
    Arată mai mult